Showing default

YUNYAO-1 46, 63347

Orbit data source: Space-Track

YUNYAO-1 46, 63347 is a payload satellite owned by Yunyao yuhang (CN) in SSO that was launched on Fri, 21 Mar 2025 UTC via a GUSHENXING 1 launch vehicle from the Jiuquan Satellite Launch Center, China (JSC). Payload-class satellites include a variety of spacecraft equipped with specific instruments for various scientific and technological missions. These include communications satellites like Starlink; space stations such as the ISS; scientific satellites like the Hubble; Earth observation satellites from companies like Planet Labs, Umbra, and HawkEye 360; GPS; miniature CubeSats for education and research; and military/defense satellites.

Loading next visibility...
Identifier
63347, 2025-059D
Orbit
SSO
Country
Flag of CNCN / PRC
Related business
Manufacturer
Changguang WJ
Mission
Operational spacecraft
Bus & Motor
YY-1, Unknown motor
Mass
~50 kg wet, ~50 kg dry
Launch date (UTC)
2025-03-21 (6 months ago)
Launch vehicle
GUSHENXING 1
Launch site
Jiuquan Satellite Launch Center, China (JSC)
Object type
Payload
Rocket body
Debris
Shape & HBR
Unknown
Radar Cross Section
Medium (>0.1 m² and <1 m²)

Expand to show TLE details & history
Last TLE update: 9 hours ago

TLE from 9 hours ago
0 YUNYAO-1 46
1 63347U 25059D   25259.52301215  .00004288  00000-0  27946-3 0  9999
2 63347  97.6052  77.9252 0012819   9.3433 350.8031 15.08381358 27000
Epoch: 2025-09-16T12:33Z
TLE epoch observation values (Epoch: 2025-09-16T12:33:08.249Z)
Latitude
-0.00007°
Longitude
-106.07126°
Altitude
535.457 km
Speed
7.6 km/s
True Right ascension
05h 11m 42s
True Declination
0° 00' 00"
Sunlit
Object was in daylight at epoch
Visualization orbit readout
Latitude
Unknown
Longitude
Unknown
Altitude
Unknown
Speed
Unknown
Apparent Right ascension
Unknown
Apparent Declination
Unknown
Sunlit
N/A
Visualization observer readout
Local Sidereal Time
14:42:41
Azimuth
Unknown
Elevation
Unknown
Doppler factor
Unknown
Orbital elements
Apogee altitude
547.002 km
Perigee altitude
529.27 km
Semi-major axis
6,916.273 km
Eccentricity
0.00128
Inclination
97.6052°
RAAN
77.9252°
Arg. of periapsis
9.3433°
True anomaly
350.77958°
Mean anomaly
350.8031°
Eccentric anomaly
350.79135°
Mean motion
3.77342 °/min
Orbital period
95.4 mins
BSTAR
0.00027946
Loading maneuver chart data...
Computing Atmospheric mass density...
Loading historical data...
Loading historical data...
Loading historical data...
Loading historical data...
Loading historical data...
Loading historical data...
Loading historical data...
Other satellites on launch #59 in the year 2025 (2025-03-21 UTC)

Documentation

Showing up to 5 results
|